Lapse_Rate
5.6 5.5 5.5 5.7 5.7 5.7 5.7 5.7 5.7 5.7 5.6 5.6 5.7 5.7 5.7 5.7 5.7 5.8 5.7 5.5 5.9 6.0 6.0 6.0 6.2 6.0 5.8 5.7 5.0 4.9 4.8 4.8 4.9 4.9 4.8 5.1 5.6 5.3 5.2 6.0 6.0 5.6 5.7
5.7 5.7 5.6 5.6 5.6 5.7 5.7 5.8 5.7 5.7 5.7 5.7 5.6 5.7 5.7 5.8 5.8 5.7 5.6 5.7 5.8 5.8 5.9 6.0 6.0 6.1 6.1 6.0 5.8 5.6 5.6 5.5 5.5 5.6 5.3 4.6 5.1 5.2 5.0 5.2 5.7 5.7 5.6
5.2 5.5 5.6 5.6 5.6 5.7 5.2 5.8 5.7 5.8 5.8 5.8 5.7 5.7 5.6 5.6 5.6 5.7 5.8 5.7 5.7 5.6 5.8 5.8 5.8 5.9 6.1 6.0 5.9 5.6 4.8 5.2 5.4 5.7 5.5 5.2 4.9 5.0 5.0 4.8 5.0 5.4 5.4
4.9 4.9 5.1 5.5 5.6 5.5 5.5 5.5 5.8 5.7 5.7 5.8 5.7 5.7 5.8 5.6 5.6 5.8 5.7 5.6 5.5 5.6 5.7 5.8 5.8 5.6 5.7 5.9 5.8 5.7 5.6 5.5 5.7 5.5 5.4 5.3 5.3 4.9 5.1 5.0 4.8 5.0 5.5
5.0 4.8 5.0 5.2 5.3 5.5 5.6 5.6 5.5 5.5 5.5 5.6 5.8 5.9 5.8 5.6 5.6 5.8 5.6 5.5 5.4 5.5 5.6 5.8 5.9 5.8 5.7 5.5 5.5 5.6 5.4 5.4 5.4 5.4 5.3 5.3 5.3 5.3 5.4 5.1 4.8 4.7 4.9
5.1 5.2 5.1 5.1 5.3 5.4 5.5 5.5 5.7 5.9 5.9 5.7 5.6 5.6 5.6 5.8 5.8 5.8 5.5 5.6 5.5 5.6 5.7 5.7 5.7 5.8 5.7 5.5 5.6 5.7 5.7 5.6 5.6 5.6 5.4 5.2 5.1 5.0 5.0 5.1 4.7 4.7 4.8
5.1 5.1 5.1 5.1 5.1 5.2 5.2 5.3 5.4 5.4 5.6 5.5 5.6 5.7 5.8 5.9 5.9 5.9 5.6 5.5 5.6 5.8 5.7 5.6 5.7 5.7 5.8 5.7 5.7 5.6 5.7 5.7 5.6 5.2 5.2 5.2 5.0 5.0 4.8 4.6 4.7 4.7 4.6
5.1 5.1 5.3 5.3 5.3 5.2 5.2 5.3 5.4 5.4 5.4 5.6 5.4 5.7 5.8 5.7 6.0 5.8 5.7 5.6 5.6 5.7 5.8 5.7 5.7 5.6 5.7 5.5 5.5 5.5 5.4 5.4 5.4 5.3 5.2 5.2 5.1 4.9 4.7 4.6 4.6 4.5 4.5
5.2 5.1 5.3 4.7 5.5 5.3 5.2 5.2 5.4 5.4 5.4 5.6 5.4 5.7 5.7 5.5 5.9 5.9 5.5 5.5 5.5 5.4 5.6 5.5 5.6 5.5 5.6 5.3 5.4 5.8 5.3 5.1 5.2 5.0 5.0 4.9 4.7 4.7 4.8 4.8 4.9 4.9 4.5
5.0 5.1 5.1 5.2 5.0 5.3 5.4 5.5 5.6 5.5 5.6 5.5 5.6 5.7 5.6 5.4 5.7 5.7 5.5 5.1 5.3 5.2 5.2 5.1 5.3 5.4 5.5 5.0 4.9 5.2 5.2 4.9 4.9 4.9 4.9 4.7 4.8 4.6 4.4 4.6 4.7 4.7 4.6
5.1 5.1 4.9 4.9 5.1 5.3 5.3 5.4 5.3 5.6 5.9 5.7 5.6 5.6 5.8 5.6 5.6 5.2 5.3 5.1 5.0 4.7 4.8 5.2 5.2 5.1 5.0 5.2 4.8 4.8 4.7 4.6 4.5 4.7 4.8 4.4 4.9 4.6 4.9 4.7 4.5 4.5 4.5
4.7 4.9 5.1 4.9 5.1 5.1 5.3 5.4 5.4 5.5 5.6 6.1 5.3 5.2 5.1 4.7 4.8 4.8 4.9 5.0 4.8 4.8 4.9 5.0 5.1 5.1 4.9 4.7 4.8 4.6 4.7 4.5 4.7 4.9 4.7 4.4 4.6 4.5 4.3 4.5 4.5 4.5 4.6
6.0 5.1 5.2 5.1 5.0 5.3 5.7 5.6 5.8 5.3 5.5 5.5 4.8 5.1 5.0 4.8 4.8 4.8 4.6 4.7 4.6 4.7 4.8 4.8 4.6 4.9 4.5 4.5 4.4 4.3 4.4 4.3 4.6 4.6 4.7 4.8 4.6 4.5 4.3 4.9 5.0 4.7 4.5
6.5 6.3 5.9 5.9 6.0 6.3 6.1 5.6 5.7 6.1 5.6 5.1 4.8 4.8 4.9 4.9 4.8 4.7 4.7 4.7 4.7 4.6 4.8 4.3 4.6 4.5 4.4 4.4 4.3 4.4 4.2 4.6 4.7 5.0 5.1 5.0 5.0 4.8 4.7 5.1 4.7 4.6 4.9
6.6 6.3 6.5 6.4 6.3 6.0 6.2 6.1 6.0 5.4 5.4 4.9 4.9 4.5 4.7 4.5 4.6 4.5 4.7 4.6 4.6 4.9 5.0 5.2 5.5 5.1 5.0 5.2 5.1 4.9 5.0 5.2 5.1 5.0 5.1 5.2 5.3 5.2 5.4 5.2 5.0 5.0 4.9
6.6 6.6 6.3 6.3 6.4 6.3 6.3 6.1 6.0 5.9 5.9 5.3 5.1 5.4 5.0 4.5 4.4 4.6 5.0 5.2 5.0 5.4 5.3 5.5 5.6 5.4 5.6 5.4 5.3 5.0 5.1 5.2 5.5 5.5 5.1 5.0 4.9 5.1 5.1 5.0 4.8 5.0 5.0
6.4 6.2 6.3 6.4 6.5 6.2 6.2 6.1 5.9 5.9 5.9 5.8 5.6 5.4 5.2 5.1 5.1 5.1 5.3 5.4 5.5 5.5 5.3 5.3 5.2 5.1 5.1 5.0 5.0 4.8 5.4 5.5 5.4 5.5 5.2 4.8 5.0 4.6 4.1 4.5 4.7 4.9 5.0
6.0 6.0 5.9 6.1 6.2 6.3 6.1 5.9 5.8 5.6 5.4 5.3 5.4 5.2 5.0 5.4 5.3 5.4 5.5 5.8 5.5 5.3 5.4 5.0 5.2 5.0 5.1 5.1 4.9 5.1 5.3 5.2 4.7 4.9 4.9 4.7 4.6 4.5 4.3 4.8 5.1 5.1 5.2
6.2 6.1 6.1 6.1 6.1 6.0 5.9 5.9 5.8 5.7 5.6 5.6 5.5 5.5 5.3 5.5 5.7 5.7 5.8 5.6 5.7 5.5 5.4 5.5 5.1 4.9 4.8 5.0 5.1 5.4 5.4 5.6 5.1 4.8 5.0 4.7 4.8 5.1 4.9 4.9 4.9 5.0 5.0
5.9 5.9 6.0 6.0 5.9 5.9 6.0 6.0 5.9 5.8 5.8 5.9 5.9 5.9 5.9 5.9 5.8 5.8 5.9 6.1 6.0 5.9 5.7 5.6 5.7 5.7 5.6 5.5 5.4 5.2 5.1 5.1 5.2 5.1 5.0 5.1 5.0 5.0 5.0 5.0 5.0 5.1 5.4
6.1 5.8 5.7 5.7 5.8 5.9 5.9 5.9 5.8 5.8 5.8 5.7 5.8 5.6 5.6 5.5 5.5 5.3 5.4 5.4 5.4 5.4 5.4 5.4 5.6 5.6 5.6 5.5 5.5 5.4 5.3 5.1 5.0 5.2 5.2 5.3 5.4 5.4 5.4 5.6 5.7 5.8 6.0
5.9 6.1 6.2 6.2 6.2 6.2 5.9 5.7 5.7 5.8 6.0 5.9 5.9 5.7 5.6 5.4 5.4 5.4 5.4 5.3 5.3 5.3 5.5 5.5 5.4 5.4 5.4 5.4 5.4 5.4 5.5 5.6 5.6 5.7 5.8 5.9 5.8 5.9 6.0 6.0 6.0 6.0 5.9
5.3 5.2 5.6 5.9 6.0 6.2 6.2 6.2 6.1 6.0 5.8 5.8 5.7 5.9 5.7 5.6 5.6 5.7 5.7 5.6 5.7 5.7 5.6 5.6 5.5 5.5 5.6 5.6 5.7 5.7 5.7 5.8 6.0 5.9 6.0 6.1 6.1 6.2 6.1 6.2 6.1 6.1 6.1
4.5 5.1 5.1 5.2 5.6 5.8 5.9 6.0 6.1 6.2 6.1 6.0 6.1 6.1 6.2 6.1 6.0 6.0 5.9 5.9 5.7 5.7 5.7 5.8 5.7 5.7 5.9 5.8 5.8 5.8 5.8 5.9 5.9 6.0 6.0 6.1 6.0 6.1 6.1 6.2 6.1 6.1 6.0
5.5 4.7 5.2 5.2 5.2 5.3 5.2 5.2 5.2 5.4 5.5 5.5 5.4 5.4 5.6 5.7 5.6 5.5 5.6 5.7 5.6 5.6 5.7 5.7 5.8 5.8 5.8 5.9 6.1 6.2 6.2 6.0 6.0 6.0 5.9 5.9 5.9 6.0 6.0 6.0 6.1 6.0 6.0
4.8 4.9 5.1 4.8 4.9 5.4 5.5 5.4 5.3 5.2 5.2 5.2 5.3 5.3 5.4 5.4 5.2 5.2 5.3 5.3 5.5 5.6 5.6 5.4 5.6 5.6 5.6 5.9 6.0 6.0 5.9 5.9 6.0 6.0 6.0 6.0 6.0 6.1 6.1 6.1 5.9 6.0 5.8
Wind_Speed
15 13 13 13 13 10 8 8 9 8 6 7 7 8 9 10 9 5 8 7 7 7 8 8 6 6 8 9 8 5 6 7 8 5 7 8 4 1 3 16 9 14 15
14 12 13 12 12 13 13 12 8 10 10 10 9 9 9 9 9 10 11 10 8 7 10 8 9 8 8 8 8 7 8 7 7 7 7 3 2 4 0 6 8 15 13
13 14 14 14 13 12 10 12 10 11 11 11 9 10 10 10 10 10 10 11 11 10 10 9 9 9 7 9 7 9 4 3 4 4 7 6 2 4 2 0 5 14 12
13 14 12 13 13 13 11 10 11 10 10 11 11 10 9 11 11 11 11 12 11 10 10 10 8 5 9 7 7 8 7 7 3 4 7 5 1 3 6 5 6 5 7
12 11 11 11 11 11 10 10 10 10 10 11 11 9 11 11 10 11 10 9 10 10 10 9 11 7 5 2 5 8 8 5 3 5 6 3 4 2 3 3 4 6 6
7 9 7 7 8 9 9 9 10 10 10 10 11 11 9 9 6 7 4 8 9 9 10 10 8 5 3 4 3 3 5 7 7 7 6 5 2 2 1 3 3 5 4
6 7 9 10 10 10 11 10 10 11 10 9 11 11 10 10 7 1 2 8 10 9 10 8 9 7 6 7 3 5 5 3 5 4 6 5 4 1 2 1 3 5 2
5 8 7 8 9 9 9 11 11 10 11 10 10 11 10 6 9 6 1 7 9 11 9 9 10 10 9 6 7 6 3 6 7 1 6 7 7 7 2 1 2 3 2
8 8 6 9 7 3 7 8 7 9 11 10 5 8 8 5 9 7 2 8 10 11 7 2 6 8 6 3 8 7 5 6 14 24 24 22 21 23 18 5 5 6 6
7 6 4 3 4 5 4 5 2 6 9 5 7 6 4 7 6 5 3 6 8 5 2 1 13 9 2 3 6 7 7 6 7 5 5 4 12 16 20 13 8 6 6
5 4 2 2 3 3 4 3 3 3 3 4 4 3 5 6 5 5 4 6 3 4 1 2 7 12 10 10 5 6 6 7 6 6 7 5 8 7 8 11 10 4 3
8 7 2 1 4 4 5 5 5 7 7 5 5 2 2 3 5 3 6 7 6 5 5 4 4 10 13 14 11 12 14 9 6 6 5 4 4 3 4 9 11 12 13
8 9 9 6 6 5 6 5 5 5 4 4 3 3 4 3 3 7 9 12 13 8 4 8 12 12 12 9 10 11 9 5 5 3 3 3 3 2 5 6 10 6 8
9 9 7 7 8 8 6 5 5 5 4 4 3 4 4 3 4 3 5 8 14 10 12 6 10 11 10 7 6 5 3 3 4 4 2 1 1 3 3 3 2 4 5
7 7 7 5 6 8 7 5 5 4 2 4 4 3 1 4 4 3 6 6 6 7 8 5 5 5 4 4 3 3 3 3 4 4 4 5 5 5 4 2 2 1 2
7 5 4 4 4 5 6 7 14 9 11 10 7 6 5 7 5 12 12 13 11 6 4 4 4 5 4 3 3 2 1 2 3 2 4 3 3 1 2 3 1 1 1
7 7 5 5 5 5 5 6 6 5 10 10 8 9 8 6 8 9 12 12 9 7 4 3 3 3 3 3 4 4 5 2 4 3 3 2 1 3 1 1 1 3 4
7 3 6 4 4 5 6 5 4 5 5 4 5 3 3 4 6 8 11 7 2 2 3 4 4 4 4 3 2 3 2 3 2 1 3 2 2 2 1 1 1 1 1
5 4 5 6 5 6 6 6 4 5 4 5 5 3 6 4 5 6 5 3 4 6 5 6 5 5 6 6 6 5 4 4 4 4 4 4 3 2 2 1 4 4 4
6 2 5 5 4 4 4 4 6 5 7 6 6 5 6 6 5 6 7 7 5 5 5 5 6 5 5 6 5 5 6 5 5 5 4 3 3 2 2 2 2 2 1
6 6 3 5 6 6 5 4 3 3 2 3 4 6 5 6 7 5 6 6 5 3 4 4 5 5 5 5 6 6 6 6 6 5 4 4 3 3 1 2 2 1 1
4 5 6 4 5 2 3 3 4 5 5 5 5 4 4 3 6 3 4 3 4 4 4 4 4 4 5 6 5 5 5 6 5 5 4 4 4 3 2 2 3 3 3
5 4 4 4 4 4 4 5 5 4 4 3 4 6 6 7 6 5 5 5 6 4 6 6 5 5 8 8 9 8 6 5 6 7 5 5 4 5 5 4 4 5 5
5 5 5 4 5 5 6 6 5 1 5 4 5 5 5 5 4 3 3 5 5 5 6 7 8 8 8 8 8 9 9 8 8 10 10 7 6 4 5 5 5 3 4
10 7 6 6 5 6 6 5 5 5 5 6 5 5 6 6 6 5 6 5 5 5 7 8 9 10 10 10 11 11 8 15 9 9 12 9 7 7 7 6 6 5 3
10 4 5 6 6 6 6 7 6 6 6 5 5 5 5 5 5 5 5 6 6 6 7 9 10 11 10 13 13 9 22 20 15 9 11 10 7 7 7 7 5 4 4
Wind_Direction
200 198 206 203 202 203 222 226 220 237 243 244 234 233 218 244 228 255 258 294 213 247 257 285 272 258 281 301 317 269 261 270 281 299 342 70 90 46 99 129 127 93 79
200 200 203 215 214 204 201 210 201 220 235 235 227 223 236 227 230 218 237 252 229 251 262 254 257 255 223 234 271 283 292 319 315 336 314 309 353 166 117 130 183 103 108
201 198 211 202 212 226 205 216 200 187 222 225 220 232 232 233 223 239 237 252 259 252 245 246 246 248 257 276 316 309 291 264 225 264 296 271 131 145 156 208 148 129 122
194 208 204 215 218 222 222 225 216 202 217 233 216 226 233 238 235 241 227 227 243 249 254 254 249 252 252 247 254 282 272 287 289 278 264 327 247 153 162 181 189 165 156
204 206 204 205 217 223 226 224 226 229 216 229 233 213 220 219 227 216 233 241 244 245 264 249 239 274 71 12 235 240 260 259 244 252 271 301 281 30 211 181 243 174 176
221 235 239 229 231 238 239 246 234 229 227 233 238 235 231 251 95 123 212 238 247 258 256 252 261 180 156 63 3 2 346 258 226 233 247 255 270 332 12 177 210 224 203
242 244 225 228 236 232 234 231 227 230 233 236 249 245 236 245 125 97 147 239 260 245 243 245 250 248 232 210 133 136 106 43 313 281 257 257 232 260 283 203 201 211 189
246 256 239 223 226 227 241 246 238 233 228 225 230 240 248 248 132 127 125 257 253 259 266 258 246 243 229 244 191 176 91 40 352 12 53 32 41 341 319 283 92 125 112
255 233 269 217 226 266 239 250 252 246 232 226 220 257 249 188 136 126 287 261 252 254 260 311 331 243 175 126 208 173 127 94 69 86 96 92 71 49 28 301 193 217 224
214 244 250 218 249 260 278 274 276 233 236 234 196 182 112 127 88 117 222 256 264 249 148 85 53 31 68 104 242 172 158 146 124 117 110 128 68 63 48 38 11 338 339
157 221 202 8 212 353 309 299 237 225 178 219 163 91 56 45 57 6 249 236 274 300 328 135 59 21 49 41 344 164 142 140 77 49 63 37 63 48 46 54 41 42 32
179 182 135 17 59 75 87 63 63 67 53 28 98 75 75 75 74 61 77 87 74 87 80 82 83 65 55 60 63 64 59 53 61 57 50 42 62 50 70 71 53 44 53
86 110 104 104 84 103 103 110 86 96 103 110 102 90 78 43 61 70 84 85 77 87 77 100 94 78 87 75 75 85 86 95 105 111 122 91 46 60 85 87 94 77 77
111 105 115 112 113 98 79 88 102 95 91 75 92 95 108 125 107 92 79 87 93 99 100 79 82 81 80 83 69 52 66 72 82 83 101 139 178 213 227 158 177 198 202
91 96 106 100 97 89 68 38 84 59 37 117 113 111 269 129 77 344 131 125 125 122 122 119 105 102 98 96 94 116 140 138 144 161 182 200 201 206 189 123 93 140 271
89 79 78 90 98 104 107 88 53 57 53 58 42 56 70 61 93 81 81 96 93 70 88 111 114 120 121 118 114 86 83 113 134 199 199 184 157 225 183 126 180 28 282
123 118 122 129 117 108 119 132 117 82 65 50 41 33 41 118 80 97 118 114 90 89 90 73 108 120 122 168 178 176 176 94 6 19 139 292 146 114 297 74 285 187 167
103 123 124 109 92 131 140 131 140 135 126 125 38 44 71 81 96 117 125 112 83 87 158 165 180 180 188 134 70 86 69 91 47 65 2 59 50 157 301 173 259 240 168
144 110 119 138 141 146 147 158 157 137 129 134 142 160 102 85 103 136 188 192 190 189 190 167 176 180 181 178 162 169 179 158 171 173 191 182 173 201 206 98 75 354 311
113 75 170 128 152 158 163 162 149 172 165 163 179 160 145 157 164 171 200 231 209 197 175 183 185 183 172 171 165 171 189 176 181 211 184 155 159 240 168 187 197 204 4
151 156 323 196 159 151 166 150 156 172 179 164 184 107 132 222 167 187 203 200 221 185 198 187 167 172 172 180 190 193 182 195 195 194 174 181 166 186 170 170 153 112 351
199 180 196 221 158 178 187 182 183 175 170 172 139 107 67 250 293 212 220 204 228 240 162 173 184 188 193 200 192 204 204 195 186 189 184 172 179 167 170 189 208 201 199
239 226 212 254 260 121 188 237 211 201 211 194 179 143 184 213 215 184 209 220 195 189 196 173 196 200 192 197 203 210 206 202 187 197 186 185 192 189 186 201 206 213 226
255 246 250 223 208 239 228 219 240 299 318 230 208 201 191 215 228 195 235 203 217 207 199 199 211 210 189 211 209 213 211 211 191 193 205 196 200 170 215 210 203 211 267
268 214 237 240 234 208 250 249 234 238 213 229 244 222 211 214 224 227 205 217 212 217 208 216 220 210 214 212 232 208 192 151 197 202 202 208 212 172 224 210 212 219 231
238 266 248 227 228 242 230 232 233 237 235 233 234 247 245 248 241 237 237 232 229 229 234 229 220 229 226 215 219 211 159 169 188 207 213 209 206 199 219 228 238 253 293